でしょう.EMES(= CMES, YC2427)の軌道の彼らの観測のずれは,約

16"でした.



    C/2004 K1 (Catalina)                                                  

T 2005 July 4.77907 TT                                  Nakano

q   3.3967020            (2000.0)            P               Q

                   Peri.   97.76992     -0.59823327     -0.76411101

                   Node   326.92680     -0.78983584     +0.61309016

e   1.0            Incl.  153.75097     +0.13518984     +0.20063602

From 66 observations 2004 May 21-June 13.

 

Date/        TT  R.A.(2000) Decl.     Delta   r     Daily motion  Mag.  Moon Age

              h    h  m       。  ,                      ,  / PA 。  m1      。

2004 June 15 14  20 19.50  -03 10.6   4.066  4.847    18.2 / 276  17.4  112  .05

          16 14  20 18.29  -03 08.6   4.048  4.841    18.5 / 276  17.4  123  .01

          17 14  20 17.06  -03 06.7   4.031  4.835    18.8 / 276  17.4  134  .00

          18 14  20 15.81  -03 04.9   4.014  4.829    19.1 / 275  17.4  144  .01

          19 14  20 14.55  -03 03.2   3.997  4.823    19.3 / 275  17.3  153  .03

          20 14  20 13.26  -03 01.5   3.981  4.817    19.6 / 275  17.3  158  .07

          21 14  20 11.96  -02 59.9   3.965  4.811    19.9 / 274  17.3  157  .12

          22 14  20 10.63  -02 58.3   3.949  4.805    20.2 / 274  17.3  151  .20

          23 14  20 09.29  -02 56.8   3.934  4.799    20.4 / 274  17.3  142  .28

          24 14  20 07.93  -02 55.4   3.918  4.793    20.7 / 274  17.3  131  .37

          25 14  20 06.55  -02 54.1   3.904  4.787    20.9 / 273  17.3  119  .48

          26 14  20 05.16  -02 52.9   3.890  4.781    21.2 / 273  17.2  106  .58

          27 14  20 03.75  -02 51.7   3.876  4.775    21.4 / 273  17.2   93  .69

          28 14  20 02.32  -02 50.6   3.862  4.769    21.6 / 273  17.2   80  .79

          29 14  20 00.88  -02 49.5   3.849  4.763    21.9 / 273  17.2   66  .88

          30 14  19 59.42  -02 48.6   3.836  4.757    22.1 / 272  17.2   53  .95

     July  1 14  19 57.95  -02 47.7   3.824  4.751    22.3 / 272  17.2   39  .99

           2 14  19 56.46  -02 46.9   3.812  4.745    22.5 / 272  17.2   28 1.00

           3 14  19 54.96  -02 46.1   3.800  4.739    22.7 / 272  17.2   23  .98

           4 14  19 53.45  -02 45.5   3.789  4.733    22.9 / 271  17.1   26  .93

           5 14  19 51.92  -02 44.9   3.778  4.728    23.1 / 271  17.1   36  .86

           6 14  19 50.38  -02 44.4   3.768  4.722    23.2 / 271  17.1   47  .77

           7 14  19 48.83  -02 44.0   3.758  4.716    23.4 / 271  17.1   59  .68

           8 14  19 47.27  -02 43.6   3.749  4.710    23.6 / 271  17.1   72  .58

           9 14  19 45.69  -02 43.3   3.740  4.704    23.7 / 270  17.1   84  .47

          10 14  19 44.11  -02 43.2   3.731  4.698    23.8 / 270  17.1   95  .38

          11 14  19 42.52  -02 43.0   3.723  4.692    24.0 / 270  17.1  107  .28

          12 14  19 40.92  -02 43.0   3.715  4.686    24.1 / 270  17.1  118  .20

          13 14  19 39.32  -02 43.1   3.708  4.680    24.2 / 270  17.0  129  .13

          14 14  19 37.70  -02 43.2   3.701  4.674    24.3 / 270  17.0  139  .08

          15 14  19 36.09  -02 43.4   3.694  4.668    24.3 / 269  17.0  148  .03

          16 14  19 34.46  -02 43.7   3.688  4.663    24.4 / 269  17.0  155  .01

          17 14  19 32.83  -02 44.0   3.683  4.657    24.5 / 269  17.0  156  .00

          18 14  19 31.20  -02 44.5   3.678  4.651    24.5 / 269  17.0  152  .01

          19 14  19 29.57  -02 45.0   3.673  4.645    24.5 / 269  17.0  144  .04

          20 14  19 27.93  -02 45.6   3.669  4.639    24.5 / 268  17.0  134  .09

          21 14  19 26.29  -02 46.2   3.665  4.633    24.6 / 268  17.0  123  .16

          22 14  19 24.66  -02 47.0   3.662  4.627    24.5 / 268  17.0  111  .24

          23 14  19 23.02  -02 47.8   3.659  4.622    24.5 / 268  17.0   99  .33

          24 14  19 21.38  -02 48.6   3.657  4.616    24.5 / 268  17.0   87  .44

          25 14  19 19.75  -02 49.6   3.655  4.610    24.5 / 268  17.0   74  .55

          26 14  19 18.12  -02 50.6   3.653  4.604    24.4 / 267  16.9   61  .66

          27 14  19 16.49  -02 51.7   3.652  4.598    24.3 / 267  16.9   48  .76

          28 14  19 14.87  -02 52.9   3.651  4.593    24.3 / 267  16.9   36  .86

          29 14  19 13.25  -02 54.1   3.651  4.587    24.2 / 267  16.9   27  .93

          30 14  19 11.64  -02 55.4   3.651  4.581    24.1 / 267  16.9   24  .98

          31 14  19 10.03  -02 56.7   3.652  4.575    24.0 / 267  16.9   30 1.00

     Aug.  1 14  19 08.43  -02 58.1   3.653  4.569    23.9 / 266  16.9   40  .99

NAKANO

         **** Don't distribute anyone except personal use only ****

                (C) Copyright 2004 OAA/ComputingSection

write mail from CFAD0::NAKANO on 2004-06-15 03:58:53(JST).

 

   C/2004 K1 (Catalina)                                                  

T 2005 July 4.97983 TT                                  Nakano

q   3.3603499            (2000.0)            P               Q

                   Peri.   98.53607     -0.60810394     -0.75656359

                   Node   326.97627     -0.78202931     +0.62299450

e   1.0            Incl.  153.81809     +0.13652748     +0.19871937

From 64 observations 2004 May 21-27.



NAKANO

         **** Don't distribute anyone except personal use only ****

                (C) Copyright 2004 OAA/ComputingSection

write mail from CFAD0::NAKANO on 2004-06-02 06:08:27(JST).

 

◎C/2004 K1の軌道と予報位置です



  上尾の門田健一氏と久万の中村彰正氏によって5月25日に観測されました.

門田氏の CCD全光度は17.9等,中村氏の核光度は18.0等でした.

 

    C/2004 K1 (Catalina)                                                  

T 2005 July 4.81462 TT                                  Nakano

q   3.3953036            (2000.0)            P               Q

                   Peri.   97.79874     -0.59863330     -0.76379310

                   Node   326.92526     -0.78951280     +0.61350616

e   1.0            Incl.  153.75045     +0.13530597     +0.20057491

From 51 observations 2004 May 21-25.

 

Date/        TT  R.A.(2000) Decl.     Delta   r     Daily motion  Mag.  Moon Age

              h    h  m       。  ,                      ,  / PA 。  m1      。

2004 May  25 18  20 39.97  -04 03.8   4.494  4.974    12.0 / 285  17.7  160  .34

          26 18  20 39.19  -04 00.7   4.471  4.968    12.3 / 284  17.7  154  .44

          27 18  20 38.39  -03 57.8   4.449  4.962    12.6 / 284  17.7  144  .54

          28 18  20 37.58  -03 54.8   4.426  4.956    12.9 / 283  17.7  133  .65

          29 18  20 36.74  -03 51.9   4.404  4.950    13.2 / 283  17.7  120  .75

          30 18  20 35.88  -03 49.1   4.382  4.943    13.5 / 282  17.6  107  .84

          31 18  20 35.00  -03 46.3   4.361  4.937    13.8 / 282  17.6   93  .91

     June  1 18  20 34.10  -03 43.5   4.339  4.931    14.1 / 281  17.6   79  .97

           2 18  20 33.17  -03 40.8   4.318  4.925    14.4 / 281  17.6   65 1.00

           3 18  20 32.23  -03 38.1   4.297  4.919    14.7 / 280  17.6   51  .99

           4 18  20 31.27  -03 35.5   4.276  4.913    15.0 / 280  17.6   38  .96

           5 18  20 30.28  -03 32.9   4.255  4.907    15.3 / 280  17.6   26  .90

           6 18  20 29.28  -03 30.4   4.235  4.901    15.6 / 279  17.5   20  .82

           7 18  20 28.25  -03 27.9   4.215  4.895    15.9 / 279  17.5   24  .72

           8 18  20 27.21  -03 25.5   4.195  4.888    16.2 / 278  17.5   33  .62

           9 18  20 26.14  -03 23.1   4.175  4.882    16.5 / 278  17.5   44  .51

          10 18  20 25.05  -03 20.8   4.156  4.876    16.8 / 278  17.5   56  .41

          11 18  20 23.94  -03 18.6   4.137  4.870    17.1 / 277  17.5   68  .31

          12 18  20 22.81  -03 16.4   4.118  4.864    17.4 / 277  17.4   80  .22

          13 18  20 21.66  -03 14.3   4.099  4.858    17.7 / 277  17.4   91  .15

          14 18  20 20.49  -03 12.2   4.081  4.852    18.0 / 276  17.4  103  .08

          15 18  20 19.30  -03 10.2   4.063  4.846    18.2 / 276  17.4  114  .04

          16 18  20 18.09  -03 08.3   4.045  4.840    18.5 / 276  17.4  125  .01

          17 18  20 16.86  -03 06.4   4.028  4.834    18.8 / 275  17.4  136  .00

          18 18  20 15.61  -03 04.6   4.011  4.828    19.1 / 275  17.4  146  .01

          19 18  20 14.33  -03 02.9   3.994  4.822    19.4 / 275  17.3  154  .03

          20 18  20 13.05  -03 01.2   3.978  4.816    19.7 / 275  17.3  158  .08

          21 18  20 11.74  -02 59.6   3.962  4.810    19.9 / 274  17.3  157  .13

          22 18  20 10.41  -02 58.1   3.946  4.804    20.2 / 274  17.3  150  .21

          23 18  20 09.07  -02 56.6   3.931  4.798    20.5 / 274  17.3  140  .29

          24 18  20 07.70  -02 55.2   3.916  4.792    20.7 / 274  17.3  129  .39

          25 18  20 06.32  -02 53.9   3.901  4.786    21.0 / 273  17.3  117  .49

NAKANO

         **** Don't distribute anyone except personal use only ****

                (C) Copyright 2004 OAA/ComputingSection

write mail from CFAD0::NAKANO on 2004-05-27 05:13:17(JST).

 

戻ります。